EN

Hourly Weather Lagich

Today, 26 July, Monday

Time Temperature Precipitation Wind Pressure Humidity
00:00 +18°C° 0 mm 1 mps 633 mmHg 73%
01:00 +18°C° 0 mm 1 mps 633 mmHg 72%
02:00 +16°C° 0 mm 1 mps 633 mmHg 72%
03:00 +16°C° 0 mm 2 mps 633 mmHg 72%
04:00 +18°C° 0 mm 1 mps 633 mmHg 68%
05:00 +19°C° 0 mm 1 mps 634 mmHg 65%
06:00 +20°C° 0 mm 1 mps 634 mmHg 61%
07:00 +22°C° 0 mm 1 mps 635 mmHg 55%
08:00 +24°C° 0 mm 2 mps 635 mmHg 48%
09:00 +26°C° 0 mm 2 mps 635 mmHg 42%
10:00 +27°C° 0 mm 3 mps 636 mmHg 39%
11:00 +28°C° 0 mm 3 mps 636 mmHg 37%
12:00 +30°C° 0 mm 3 mps 636 mmHg 34%
13:00 +30°C° 0 mm 3 mps 635 mmHg 34%
14:00 +30°C° 0 mm 4 mps 635 mmHg 33%
15:00 +30°C° 0 mm 4 mps 635 mmHg 33%
16:00 +29°C° 0 mm 3 mps 635 mmHg 35%
17:00 +28°C° 0 mm 3 mps 634 mmHg 36%
18:00 +27°C° 0 mm 3 mps 634 mmHg 38%
19:00 +25°C° 0 mm 3 mps 634 mmHg 44%
20:00 +23°C° 0 mm 2 mps 633 mmHg 50%
21:00 +19°C° 0 mm 2 mps 633 mmHg 56%
22:00 +19°C° 0 mm 2 mps 633 mmHg 57%
23:00 +19°C° 0 mm 2 mps 632 mmHg 58%

Tomorrow, 27 July, Tuesday

Time Temperature Precipitation Wind Pressure Humidity
00:00 +18°C° 0 mm 3 mps 632 mmHg 59%
01:00 +18°C° 0 mm 3 mps 632 mmHg 60%
02:00 +18°C° 0 mm 3 mps 632 mmHg 60%
03:00 +18°C° 0 mm 3 mps 631 mmHg 60%
04:00 +19°C° 0 mm 2 mps 631 mmHg 59%
05:00 +19°C° 0 mm 2 mps 632 mmHg 58%
06:00 +21°C° 0 mm 1 mps 632 mmHg 57%
07:00 +21°C° 0.1 mm 2 mps 632 mmHg 53%
08:00 +24°C° 0.1 mm 2 mps 632 mmHg 48%
09:00 +26°C° 0.1 mm 2 mps 633 mmHg 43%
10:00 +26°C° 0.2 mm 3 mps 633 mmHg 42%
11:00 +27°C° 0.2 mm 3 mps 633 mmHg 41%
12:00 +28°C° 0.2 mm 3 mps 633 mmHg 40%
13:00 +28°C° 0.2 mm 3 mps 632 mmHg 40%
14:00 +28°C° 0.2 mm 3 mps 632 mmHg 40%
15:00 +28°C° 0.2 mm 3 mps 632 mmHg 40%
16:00 +27°C° 0 mm 3 mps 631 mmHg 43%
17:00 +26°C° 0 mm 3 mps 631 mmHg 46%
18:00 +25°C° 0 mm 3 mps 631 mmHg 48%
19:00 +21°C° 0.2 mm 3 mps 631 mmHg 57%
20:00 +19°C° 0.2 mm 4 mps 630 mmHg 65%
21:00 +15°C° 0.2 mm 4 mps 630 mmHg 74%
22:00 +15°C° 0.3 mm 4 mps 630 mmHg 77%
23:00 +14°C° 0.3 mm 3 mps 630 mmHg 79%

Day after tomorrow, 28 July, Wednesday

Time Temperature Precipitation Wind Pressure Humidity
00:00 +14°C° 0.3 mm 3 mps 630 mmHg 82%
01:00 +13°C° 0.7 mm 3 mps 630 mmHg 83%
02:00 +13°C° 0.7 mm 3 mps 629 mmHg 84%
03:00 +13°C° 0.7 mm 3 mps 629 mmHg 85%
04:00 +14°C° 0.8 mm 2 mps 630 mmHg 84%
05:00 +14°C° 0.8 mm 2 mps 630 mmHg 83%
06:00 +15°C° 0.8 mm 2 mps 630 mmHg 82%
07:00 +15°C° 0.3 mm 2 mps 630 mmHg 81%
08:00 +15°C° 0.3 mm 2 mps 630 mmHg 80%
09:00 +15°C° 0.3 mm 2 mps 630 mmHg 80%
10:00 +15°C° 0.1 mm 2 mps 631 mmHg 78%
11:00 +15°C° 0.1 mm 2 mps 631 mmHg 75%
12:00 +15°C° 0.1 mm 2 mps 631 mmHg 73%
13:00 +14°C° 0.1 mm 3 mps 631 mmHg 72%
14:00 +14°C° 0.1 mm 3 mps 631 mmHg 71%
15:00 +14°C° 0.1 mm 3 mps 631 mmHg 70%
16:00 +13°C° 0.1 mm 3 mps 631 mmHg 71%
17:00 +13°C° 0.1 mm 3 mps 631 mmHg 72%
18:00 +13°C° 0.1 mm 3 mps 631 mmHg 73%
19:00 +13°C° 0 mm 3 mps 631 mmHg 73%
20:00 +13°C° 0 mm 3 mps 631 mmHg 73%
21:00 +12°C° 0 mm 3 mps 631 mmHg 73%
22:00 +13°C° 0.1 mm 2 mps 631 mmHg 72%
23:00 +13°C° 0.1 mm 2 mps 631 mmHg 72%

29 July, Thursday

Time Temperature Precipitation Wind Pressure Humidity
00:00 +13°C° 0.1 mm 2 mps 631 mmHg 72%
01:00 +13°C° 0.1 mm 2 mps 631 mmHg 73%
02:00 +13°C° 0.1 mm 2 mps 631 mmHg 74%
03:00 +13°C° 0.1 mm 2 mps 631 mmHg 75%
04:00 +13°C° 0 mm 2 mps 631 mmHg 73%
05:00 +13°C° 0 mm 2 mps 631 mmHg 71%
06:00 +13°C° 0 mm 2 mps 631 mmHg 69%
07:00 +13°C° 0 mm 1 mps 632 mmHg 65%
08:00 +14°C° 0 mm 1 mps 632 mmHg 62%
09:00 +14°C° 0 mm 1 mps 633 mmHg 59%
10:00 +16°C° 0 mm 1 mps 633 mmHg 55%
11:00 +17°C° 0 mm 2 mps 633 mmHg 52%
12:00 +18°C° 0 mm 2 mps 633 mmHg 48%
13:00 +18°C° 0 mm 2 mps 633 mmHg 47%
14:00 +19°C° 0 mm 2 mps 633 mmHg 47%
15:00 +19°C° 0 mm 2 mps 633 mmHg 46%
16:00 +19°C° 0 mm 2 mps 633 mmHg 48%
17:00 +19°C° 0 mm 2 mps 633 mmHg 51%
18:00 +18°C° 0 mm 2 mps 633 mmHg 54%
19:00 +18°C° 0 mm 1 mps 633 mmHg 57%
20:00 +16°C° 0 mm 1 mps 633 mmHg 61%
21:00 +15°C° 0 mm 1 mps 632 mmHg 65%
22:00 +15°C° 0 mm 1 mps 632 mmHg 65%
23:00 +14°C° 0 mm 1 mps 632 mmHg 66%

30 July, Friday

Time Temperature Precipitation Wind Pressure Humidity
00:00 +14°C° 0 mm 1 mps 632 mmHg 66%
01:00 +14°C° 0 mm 1 mps 631 mmHg 67%
02:00 +13°C° 0 mm 1 mps 631 mmHg 68%
03:00 +13°C° 0 mm 1 mps 631 mmHg 70%
04:00 +14°C° 0 mm 1 mps 631 mmHg 66%
05:00 +15°C° 0 mm 1 mps 631 mmHg 63%
06:00 +14°C° 0 mm 0 mps 632 mmHg 60%
07:00 +18°C° 0 mm 1 mps 632 mmHg 53%
08:00 +19°C° 0 mm 2 mps 633 mmHg 47%
09:00 +20°C° 0 mm 2 mps 633 mmHg 41%
10:00 +21°C° 0 mm 3 mps 633 mmHg 38%
11:00 +22°C° 0 mm 3 mps 634 mmHg 36%
12:00 +24°C° 0 mm 3 mps 634 mmHg 33%
13:00 +25°C° 0 mm 3 mps 633 mmHg 34%
14:00 +25°C° 0 mm 3 mps 633 mmHg 34%
15:00 +25°C° 0 mm 3 mps 633 mmHg 34%
16:00 +24°C° 0 mm 3 mps 633 mmHg 36%
17:00 +22°C° 0 mm 3 mps 633 mmHg 38%
18:00 +23°C° 0 mm 2 mps 633 mmHg 40%
19:00 +20°C° 0 mm 2 mps 632 mmHg 45%
20:00 +18°C° 0 mm 2 mps 632 mmHg 50%
21:00 +16°C° 0 mm 2 mps 632 mmHg 54%
22:00 +16°C° 0 mm 2 mps 632 mmHg 55%
23:00 +16°C° 0 mm 2 mps 631 mmHg 55%

31 July, Saturday

Time Temperature Precipitation Wind Pressure Humidity
00:00 +16°C° 0 mm 2 mps 631 mmHg 55%
01:00 +16°C° 0 mm 2 mps 631 mmHg 55%
02:00 +15°C° 0 mm 2 mps 631 mmHg 56%
03:00 +15°C° 0 mm 2 mps 631 mmHg 56%
04:00 +16°C° 0 mm 1 mps 631 mmHg 54%
05:00 +18°C° 0 mm 1 mps 631 mmHg 52%
06:00 +19°C° 0 mm 1 mps 631 mmHg 50%
07:00 +19°C° 0 mm 2 mps 632 mmHg 46%
08:00 +21°C° 0 mm 2 mps 632 mmHg 42%
09:00 +24°C° 0 mm 2 mps 632 mmHg 38%
10:00 +25°C° 0 mm 3 mps 632 mmHg 37%
11:00 +26°C° 0 mm 3 mps 632 mmHg 35%
12:00 +27°C° 0 mm 3 mps 632 mmHg 34%
13:00 +27°C° 0 mm 3 mps 632 mmHg 35%
14:00 +27°C° 0 mm 3 mps 632 mmHg 36%
15:00 +27°C° 0 mm 3 mps 632 mmHg 36%
16:00 +26°C° 0 mm 3 mps 632 mmHg 40%
17:00 +25°C° 0 mm 3 mps 632 mmHg 43%
18:00 +24°C° 0 mm 3 mps 631 mmHg 46%
19:00 +21°C° 0 mm 2 mps 631 mmHg 52%
20:00 +20°C° 0 mm 2 mps 631 mmHg 59%
21:00 +19°C° 0 mm 1 mps 631 mmHg 65%
22:00 +19°C° 0 mm 1 mps 631 mmHg 65%
23:00 +19°C° 0 mm 1 mps 631 mmHg 65%
Show more